CZ-2C DEB

Satellite information

Favourite Embed

Satellite Type and Status

DEBRISIN ORBIT

Key statistics

Satellite CZ-2C DEB at a glance.

Uptime

4494

Days in orbit

Revolutions

≈ 14.8

Per day

Orbit

SSO

Sun Synchronous Orbit

Inclination

97.8

Latest

Satellite identification and parameters

Extended collection of information and parameters for CZ-2C DEB.

Object identification

Identified? True

Debris? True

Object name: CZ-2C DEB

International designator: 2013-035D

Object number (NORAD): 39205

Object ID (CCSDS): 39205

Country: PEOPLES REPUBLIC OF CHINA (PRC)

Current information (Y/N): Y

RCS size: SMALL

Orbital parameters

Period: 96.987 minutes

Inclination: 97.8102 deg

SMA: 6992.561 km

Apoapsis: 654.928 km

Periapsis: 573.925 km

RAAN: 303.8869 deg

Eccentricy: 0.0057921

Argument of periapsis: 184.0778 deg

Mean anomaly: 175.9973 deg

Mean motion: 14.8473286 rev/day

Mean motion (dot): 0.00010749 rev/day2

B* drag term: 0.0012361 1/REarth

Two-line elements (TLE)

Creation date: Nov. 2, 2025, 3:46 p.m.

Reference frame: TEME

Reference center: EARTH

Epoch: Nov. 2, 2025, 10:57 a.m. UTC

TLE line 0: 0 CZ-2C DEB

TLE line 1: 1 39205U 13035D 25306.45640186 .00010749 00000-0 12361-2 0 9997

TLE line 2: 2 39205 97.8102 303.8869 0057921 184.0778 175.9973 14.84732860654564

Live tracking on map

Real-time ground track for satellite CZ-2C DEB.

In-orbit conjunctions

A list of the most updated potential collisions computed for object CZ-2C DEB.

Target Orbit TCA Probability of collision Miss distance Type
PSLV R/B SSO 2025-03-29 08:42:51 0.000103297 797.0 (m) ROCKET BODY
ATLAS CENTAUR R/B LEO 2025-01-04 02:32:01 0.0002700064 291.0 (m) ROCKET BODY

Associated space launch

CZ-2C DEB was lifted into orbit during the mission ‘Long March 2C | Shijian 11-05’, on board a Long March 2 space rocket.

The launch took place on July 15, 2013, 9:27 a.m. from Launch Area 4 (SLS-2 / 603).

For more information about the launch, click the button.

Launch to space Long March 2C | Shijian 11-05
Long March 2C | Shijian 11-05

Agency: N/A

Status: Launch Successful

Launch date: July 15, 2013, 9:27 a.m. UTC

Rocket: Long March 2

Launch pad: Launch Area 4 (SLS-2 / 603)

Location: Jiuquan Satellite Launch Center, People's Republic of China

...

Latest news about this satellite

There are no fresh news available about this satellite. Check back as we update our databases every day.


Newsletter sign-up

Weekly statistics, charts and insights to help you stay on top of the space industry.